Time,TemperatureF,DewpointF,PressureIn,WindDirection,WindDirectionDegrees,WindSpeedMPH,WindSpeedGustMPH,Humidity,HourlyPrecipIn,Conditions,Clouds,dailyrainin,SoftwareType,DateUTC
2013-10-04 00:02:00,70.3,64.2,29.79,South,180,2.9,4.0,81,0.00,,,0.00,WUHU216HW,2013-10-04 05:02:00,
2013-10-04 00:03:00,70.3,64.2,29.79,South,180,2.9,4.0,81,0.00,,,0.00,WUHU216HW,2013-10-04 05:03:00,
2013-10-04 00:04:00,70.3,64.2,29.79,South,180,1.3,2.9,81,0.00,,,0.00,WUHU216HW,2013-10-04 05:04:00,
2013-10-04 00:05:00,70.3,64.2,29.79,South,180,1.3,2.9,81,0.00,,,0.00,WUHU216HW,2013-10-04 05:05:00,
2013-10-04 00:06:00,70.3,64.2,29.79,ESE,113,0.0,2.9,81,0.00,,,0.00,WUHU216HW,2013-10-04 05:06:00,
2013-10-04 00:10:00,70.3,64.2,29.79,ESE,113,0.0,2.9,81,0.00,,,0.00,WUHU216HW,2013-10-04 05:10:00,
2013-10-04 00:11:00,70.3,64.2,29.79,ESE,113,0.0,2.9,81,0.00,,,0.00,WUHU216HW,2013-10-04 05:11:00,
2013-10-04 00:16:00,70.3,64.2,29.78,NE,45,0.0,0.0,81,0.00,,,0.00,WUHU216HW,2013-10-04 05:16:00,
2013-10-04 00:19:00,70.3,64.2,29.78,SSE,158,0.0,0.0,81,0.00,,,0.00,WUHU216HW,2013-10-04 05:19:00,
2013-10-04 00:24:00,70.1,64.0,29.78,SW,225,0.0,3.1,81,0.00,,,0.00,WUHU216HW,2013-10-04 05:24:00,
2013-10-04 00:25:00,70.1,64.0,29.78,SW,225,0.0,3.1,81,0.00,,,0.00,WUHU216HW,2013-10-04 05:25:00,
2013-10-04 00:26:00,70.1,64.0,29.78,South,180,0.0,3.1,81,0.00,,,0.00,WUHU216HW,2013-10-04 05:26:00,
2013-10-04 00:31:00,70.1,64.0,29.78,SSE,158,3.5,3.5,81,0.00,,,0.00,WUHU216HW,2013-10-04 05:31:00,
2013-10-04 00:36:00,69.9,63.8,29.78,SSE,158,1.7,4.6,81,0.00,,,0.00,WUHU216HW,2013-10-04 05:36:00,
2013-10-04 00:41:00,69.9,64.1,29.78,South,180,2.0,4.6,82,0.00,,,0.00,WUHU216HW,2013-10-04 05:41:00,
2013-10-04 00:46:00,69.9,64.1,29.78,SE,135,0.0,2.0,82,0.00,,,0.00,WUHU216HW,2013-10-04 05:46:00,
2013-10-04 00:51:00,69.9,64.1,29.78,SSE,158,0.0,2.4,82,0.00,,,0.00,WUHU216HW,2013-10-04 05:51:00,
2013-10-04 00:56:00,69.8,64.0,29.78,South,180,4.4,4.4,82,0.00,,,0.00,WUHU216HW,2013-10-04 05:56:00,
2013-10-04 01:01:00,69.8,64.0,29.78,SSE,158,0.0,4.4,82,0.00,,,0.00,WUHU216HW,2013-10-04 06:01:00,
2013-10-04 01:06:00,69.6,63.8,29.78,SE,135,6.4,6.4,82,0.00,,,0.00,WUHU216HW,2013-10-04 06:06:00,
2013-10-04 01:11:00,69.6,63.8,29.78,South,180,6.4,6.4,82,0.00,,,0.00,WUHU216HW,2013-10-04 06:11:00,
2013-10-04 01:16:00,69.6,63.8,29.78,South,180,3.8,6.4,82,0.00,,,0.00,WUHU216HW,2013-10-04 06:16:00,
2013-10-04 01:21:00,69.4,63.6,29.78,NE,45,0.0,5.3,82,0.00,,,0.00,WUHU216HW,2013-10-04 06:21:00,
2013-10-04 01:26:00,69.4,64.0,29.78,ENE,68,0.0,2.9,83,0.00,,,0.00,WUHU216HW,2013-10-04 06:26:00,
2013-10-04 01:31:00,69.0,63.6,29.78,SSE,158,0.0,1.3,83,0.00,,,0.00,WUHU216HW,2013-10-04 06:31:00,
2013-10-04 01:37:00,68.9,63.5,29.78,South,180,0.0,7.8,83,0.00,,,0.00,WUHU216HW,2013-10-04 06:37:00,
2013-10-04 01:42:00,68.7,63.3,29.78,ESE,113,1.3,7.8,83,0.00,,,0.00,WUHU216HW,2013-10-04 06:42:00,
2013-10-04 01:47:00,68.7,63.6,29.78,South,180,0.0,4.2,84,0.00,,,0.00,WUHU216HW,2013-10-04 06:47:00,
2013-10-04 01:52:00,68.5,63.5,29.78,SSE,158,1.5,4.2,84,0.00,,,0.00,WUHU216HW,2013-10-04 06:52:00,
2013-10-04 01:57:00,68.5,63.5,29.78,South,180,3.8,3.8,84,0.00,,,0.00,WUHU216HW,2013-10-04 06:57:00,
2013-10-04 02:02:00,68.3,63.6,29.78,South,180,4.6,4.6,85,0.00,,,0.00,WUHU216HW,2013-10-04 07:02:00,
2013-10-04 02:07:00,68.3,63.6,29.78,SSE,158,0.0,4.6,85,0.00,,,0.00,WUHU216HW,2013-10-04 07:07:00,
2013-10-04 02:12:00,68.1,63.4,29.78,South,180,5.3,5.3,85,0.00,,,0.00,WUHU216HW,2013-10-04 07:12:00,
2013-10-04 02:17:00,68.1,63.4,29.78,SE,135,0.0,5.3,85,0.00,,,0.00,WUHU216HW,2013-10-04 07:17:00,
2013-10-04 02:22:00,68.1,63.4,29.78,South,180,3.5,5.3,85,0.00,,,0.00,WUHU216HW,2013-10-04 07:22:00,
2013-10-04 02:27:00,68.0,63.6,29.77,SSE,158,3.8,5.3,85,0.00,,,0.00,WUHU216HW,2013-10-04 07:27:00,
2013-10-04 02:32:00,68.0,63.6,29.78,SSE,158,1.5,5.3,86,0.00,,,0.00,WUHU216HW,2013-10-04 07:32:00,
2013-10-04 02:37:00,67.8,63.4,29.78,ESE,113,1.3,3.8,86,0.00,,,0.00,WUHU216HW,2013-10-04 07:37:00,
2013-10-04 02:42:00,67.8,63.4,29.78,West,270,2.9,3.1,86,0.00,,,0.00,WUHU216HW,2013-10-04 07:42:00,
2013-10-04 02:47:00,67.8,63.7,29.78,South,180,5.3,5.3,87,0.00,,,0.00,WUHU216HW,2013-10-04 07:47:00,
2013-10-04 02:52:00,67.8,63.7,29.78,South,180,5.5,5.5,87,0.00,,,0.00,WUHU216HW,2013-10-04 07:52:00,
2013-10-04 02:57:00,67.8,63.7,29.78,SSE,158,0.0,5.5,87,0.00,,,0.00,WUHU216HW,2013-10-04 07:57:00,
2013-10-04 03:02:00,67.8,63.7,29.78,SSE,158,5.1,5.1,87,0.00,,,0.00,WUHU216HW,2013-10-04 08:02:00,
2013-10-04 03:07:00,67.8,63.7,29.78,SSE,158,3.5,5.1,87,0.00,,,0.00,WUHU216HW,2013-10-04 08:07:00,
2013-10-04 03:12:00,67.8,64.1,29.78,South,180,4.2,5.1,88,0.00,,,0.00,WUHU216HW,2013-10-04 08:12:00,
2013-10-04 03:17:00,67.8,64.1,29.78,South,180,6.7,6.7,88,0.00,,,0.00,WUHU216HW,2013-10-04 08:17:00,
2013-10-04 03:22:00,67.8,64.1,29.79,SSE,158,0.0,6.7,88,0.00,,,0.00,WUHU216HW,2013-10-04 08:22:00,
2013-10-04 03:27:00,68.0,64.2,29.79,South,180,0.0,6.7,88,0.00,,,0.00,WUHU216HW,2013-10-04 08:27:00,
2013-10-04 03:32:00,68.1,64.4,29.79,South,180,4.0,4.2,88,0.00,,,0.00,WUHU216HW,2013-10-04 08:32:00,
2013-10-04 03:37:00,68.1,64.7,29.78,SSW,203,4.0,4.2,89,0.00,,,0.00,WUHU216HW,2013-10-04 08:37:00,
2013-10-04 03:42:00,68.1,64.7,29.78,SW,225,5.8,5.8,89,0.00,,,0.00,WUHU216HW,2013-10-04 08:42:00,
2013-10-04 03:47:00,68.1,64.7,29.78,SSE,158,2.2,5.8,89,0.00,,,0.00,WUHU216HW,2013-10-04 08:47:00,
2013-10-04 03:52:00,68.1,64.7,29.78,South,180,2.0,5.8,89,0.00,,,0.00,WUHU216HW,2013-10-04 08:52:00,
2013-10-04 03:57:00,68.1,64.7,29.78,South,180,2.0,4.2,89,0.00,,,0.00,WUHU216HW,2013-10-04 08:57:00,
2013-10-04 04:02:00,68.1,64.7,29.78,SSE,158,2.2,4.2,89,0.00,,,0.00,WUHU216HW,2013-10-04 09:02:00,
2013-10-04 04:07:00,68.1,64.7,29.79,South,180,2.2,4.6,89,0.00,,,0.00,WUHU216HW,2013-10-04 09:07:00,
2013-10-04 04:12:00,68.1,64.7,29.78,SSE,158,0.0,5.5,89,0.00,,,0.00,WUHU216HW,2013-10-04 09:12:00,
2013-10-04 04:17:00,68.1,64.7,29.79,South,180,4.2,5.5,89,0.00,,,0.00,WUHU216HW,2013-10-04 09:17:00,
2013-10-04 04:22:00,68.1,64.7,29.79,SSE,158,0.6,4.2,89,0.00,,,0.00,WUHU216HW,2013-10-04 09:22:00,
2013-10-04 04:27:00,67.8,64.4,29.79,SSE,158,3.5,3.5,89,0.00,,,0.00,WUHU216HW,2013-10-04 09:27:00,
2013-10-04 04:32:00,68.0,64.6,29.79,South,180,3.8,3.8,89,0.00,,,0.00,WUHU216HW,2013-10-04 09:32:00,
2013-10-04 04:37:00,68.0,64.6,29.79,South,180,2.9,3.8,89,0.00,,,0.00,WUHU216HW,2013-10-04 09:37:00,
2013-10-04 04:42:00,67.8,64.4,29.79,South,180,4.4,4.4,89,0.00,,,0.00,WUHU216HW,2013-10-04 09:42:00,
2013-10-04 04:47:00,67.8,64.4,29.79,SSE,158,0.0,4.4,89,0.00,,,0.00,WUHU216HW,2013-10-04 09:47:00,
2013-10-04 04:52:00,67.8,64.4,29.79,South,180,2.0,4.4,89,0.00,,,0.00,WUHU216HW,2013-10-04 09:52:00,
2013-10-04 04:57:00,67.8,64.4,29.79,South,180,3.8,3.8,89,0.00,,,0.00,WUHU216HW,2013-10-04 09:57:00,
2013-10-04 05:02:00,67.8,64.7,29.79,SSE,158,0.6,3.8,90,0.00,,,0.00,WUHU216HW,2013-10-04 10:02:00,
2013-10-04 05:07:00,67.8,64.7,29.79,South,180,3.8,3.8,90,0.00,,,0.00,WUHU216HW,2013-10-04 10:07:00,
2013-10-04 05:12:00,67.8,64.7,29.80,SSE,158,2.0,3.8,90,0.00,,,0.00,WUHU216HW,2013-10-04 10:12:00,
2013-10-04 05:17:00,67.8,64.7,29.80,ESE,113,0.0,3.8,90,0.00,,,0.00,WUHU216HW,2013-10-04 10:17:00,
2013-10-04 05:22:00,67.8,64.7,29.80,South,180,2.6,2.6,90,0.00,,,0.00,WUHU216HW,2013-10-04 10:22:00,
2013-10-04 05:27:00,67.8,64.7,29.80,SSE,158,2.0,4.6,90,0.00,,,0.00,WUHU216HW,2013-10-04 10:27:00,
2013-10-04 05:32:00,67.8,64.7,29.79,SSE,158,1.7,4.6,90,0.00,,,0.00,WUHU216HW,2013-10-04 10:32:00,
2013-10-04 05:37:00,67.8,64.7,29.80,ESE,113,0.0,2.9,90,0.00,,,0.00,WUHU216HW,2013-10-04 10:37:00,
2013-10-04 05:42:00,68.1,65.1,29.79,South,180,2.4,2.4,90,0.00,,,0.00,WUHU216HW,2013-10-04 10:42:00,
2013-10-04 05:47:00,68.1,65.4,29.80,South,180,0.8,3.3,91,0.00,,,0.00,WUHU216HW,2013-10-04 10:47:00,
2013-10-04 05:52:00,68.1,65.4,29.80,South,180,1.1,3.3,91,0.00,,,0.00,WUHU216HW,2013-10-04 10:52:00,
2013-10-04 05:57:00,68.3,65.6,29.80,South,180,2.2,2.6,91,0.00,,,0.00,WUHU216HW,2013-10-04 10:57:00,
2013-10-04 06:02:00,68.3,65.6,29.80,SSE,158,2.0,2.2,91,0.00,,,0.00,WUHU216HW,2013-10-04 11:02:00,
2013-10-04 06:07:00,68.5,65.7,29.81,SW,225,2.0,2.0,91,0.00,,,0.00,WUHU216HW,2013-10-04 11:07:00,
2013-10-04 06:12:00,68.5,65.7,29.80,SW,225,1.5,2.4,91,0.00,,,0.00,WUHU216HW,2013-10-04 11:12:00,
2013-10-04 06:17:00,68.7,65.9,29.81,SSW,203,0.0,2.4,91,0.00,,,0.00,WUHU216HW,2013-10-04 11:17:00,
2013-10-04 06:22:00,68.7,65.9,29.80,South,180,0.0,1.5,91,0.00,,,0.00,WUHU216HW,2013-10-04 11:22:00,
2013-10-04 06:27:00,68.7,65.9,29.80,NW,315,0.0,0.0,91,0.00,,,0.00,WUHU216HW,2013-10-04 11:27:00,
2013-10-04 06:32:00,68.7,65.9,29.80,SW,225,0.0,0.0,91,0.00,,,0.00,WUHU216HW,2013-10-04 11:32:00,
2013-10-04 06:37:00,68.7,65.9,29.80,WNW,293,0.0,0.0,91,0.00,,,0.00,WUHU216HW,2013-10-04 11:37:00,
2013-10-04 06:42:00,68.7,65.9,29.80,WNW,293,0.0,0.0,91,0.00,,,0.00,WUHU216HW,2013-10-04 11:42:00,
2013-10-04 06:47:00,68.7,65.9,29.80,WNW,293,0.0,0.0,91,0.00,,,0.00,WUHU216HW,2013-10-04 11:47:00,
2013-10-04 06:52:00,68.7,65.9,29.80,North,0,0.0,0.0,91,0.00,,,0.00,WUHU216HW,2013-10-04 11:52:00,
2013-10-04 06:57:00,68.7,65.9,29.80,NE,45,0.0,0.0,91,0.00,,,0.00,WUHU216HW,2013-10-04 11:57:00,
2013-10-04 07:02:00,68.7,65.9,29.80,ENE,68,0.0,0.0,91,0.00,,,0.00,WUHU216HW,2013-10-04 12:02:00,
2013-10-04 07:07:00,68.7,65.9,29.80,East,90,0.0,0.0,91,0.00,,,0.00,WUHU216HW,2013-10-04 12:07:00,
2013-10-04 07:12:00,68.7,65.9,29.80,NNE,23,0.0,0.0,91,0.00,,,0.00,WUHU216HW,2013-10-04 12:12:00,
2013-10-04 07:17:00,68.9,66.1,29.80,East,90,0.0,0.0,91,0.00,,,0.00,WUHU216HW,2013-10-04 12:17:00,
2013-10-04 07:22:00,68.9,66.1,29.80,East,90,0.0,0.0,91,0.00,,,0.00,WUHU216HW,2013-10-04 12:22:00,
2013-10-04 07:27:00,68.9,66.1,29.80,SSE,158,0.0,0.0,91,0.00,,,0.00,WUHU216HW,2013-10-04 12:27:00,
2013-10-04 07:32:00,69.0,66.3,29.80,SSE,158,0.0,0.0,91,0.00,,,0.00,WUHU216HW,2013-10-04 12:32:00,
2013-10-04 07:37:00,69.0,66.3,29.79,North,0,0.0,0.0,91,0.00,,,0.00,WUHU216HW,2013-10-04 12:37:00,
2013-10-04 07:42:00,69.0,66.3,29.80,ESE,113,0.0,0.0,91,0.00,,,0.00,WUHU216HW,2013-10-04 12:42:00,
2013-10-04 07:47:00,69.0,66.3,29.80,SSE,158,0.0,0.0,91,0.00,,,0.00,WUHU216HW,2013-10-04 12:47:00,
2013-10-04 07:52:00,69.0,66.3,29.80,SSE,158,0.0,0.0,91,0.00,,,0.00,WUHU216HW,2013-10-04 12:52:00,
2013-10-04 07:57:00,69.2,66.5,29.80,SSE,158,0.0,0.0,91,0.00,,,0.00,WUHU216HW,2013-10-04 12:57:00,
2013-10-04 08:02:00,69.4,66.6,29.80,SE,135,0.0,0.0,91,0.00,,,0.00,WUHU216HW,2013-10-04 13:02:00,
2013-10-04 08:07:00,69.4,66.6,29.80,South,180,0.0,0.0,91,0.00,,,0.00,WUHU216HW,2013-10-04 13:07:00,
2013-10-04 08:12:00,69.6,66.8,29.79,WSW,248,0.0,0.0,91,0.00,,,0.00,WUHU216HW,2013-10-04 13:12:00,
2013-10-04 08:17:00,69.6,66.8,29.79,East,90,0.0,0.0,91,0.00,,,0.00,WUHU216HW,2013-10-04 13:17:00,
2013-10-04 08:22:00,69.9,67.2,29.79,ENE,68,0.0,0.0,91,0.00,,,0.00,WUHU216HW,2013-10-04 13:22:00,
2013-10-04 08:27:00,70.1,67.4,29.79,SSE,158,0.0,0.0,91,0.00,,,0.00,WUHU216HW,2013-10-04 13:27:00,
2013-10-04 08:32:00,70.3,67.5,29.79,ESE,113,0.0,4.2,91,0.00,,,0.00,WUHU216HW,2013-10-04 13:32:00,
2013-10-04 08:37:00,70.7,67.9,29.79,ESE,113,0.0,4.2,91,0.00,,,0.00,WUHU216HW,2013-10-04 13:37:00,
2013-10-04 08:42:00,70.8,67.8,29.79,SE,135,0.0,6.2,90,0.00,,,0.00,WUHU216HW,2013-10-04 13:42:00,
2013-10-04 08:47:00,70.8,67.8,29.79,South,180,1.5,6.2,90,0.00,,,0.00,WUHU216HW,2013-10-04 13:47:00,
2013-10-04 08:52:00,70.8,67.8,29.79,NE,45,0.0,3.1,90,0.00,,,0.00,WUHU216HW,2013-10-04 13:52:00,
2013-10-04 08:57:00,70.8,67.8,29.79,South,180,12.3,12.3,90,0.00,,,0.00,WUHU216HW,2013-10-04 13:57:00,
2013-10-04 09:02:00,70.8,67.8,29.79,SSE,158,0.0,12.3,90,0.00,,,0.00,WUHU216HW,2013-10-04 14:02:00,
2013-10-04 09:07:00,70.8,67.8,29.79,WSW,248,2.0,12.3,90,0.00,,,0.00,WUHU216HW,2013-10-04 14:07:00,
2013-10-04 09:12:00,70.8,67.4,29.78,South,180,5.1,8.0,89,0.00,,,0.00,WUHU216HW,2013-10-04 14:12:00,
2013-10-04 09:17:00,70.8,67.4,29.80,SSE,158,5.8,8.0,89,0.00,,,0.00,WUHU216HW,2013-10-04 14:17:00,
2013-10-04 09:22:00,70.8,67.4,29.82,SSW,203,4.0,8.5,89,0.00,,,0.00,WUHU216HW,2013-10-04 14:22:00,
2013-10-04 09:27:00,70.7,67.6,29.80,SSE,158,6.0,8.5,90,0.32,,,0.16,WUHU216HW,2013-10-04 14:27:00,
2013-10-04 09:32:00,70.3,67.2,29.80,SE,135,5.5,6.7,90,0.43,,,0.43,WUHU216HW,2013-10-04 14:32:00,
2013-10-04 09:37:00,70.1,67.1,29.80,SE,135,5.5,6.0,90,0.44,,,0.44,WUHU216HW,2013-10-04 14:37:00,
2013-10-04 09:42:00,69.9,66.9,29.81,SE,135,10.7,10.7,90,0.44,,,0.44,WUHU216HW,2013-10-04 14:42:00,
2013-10-04 09:47:00,70.1,67.1,29.81,SSW,203,0.0,10.7,90,0.44,,,0.44,WUHU216HW,2013-10-04 14:47:00,
2013-10-04 09:52:00,70.1,67.1,29.82,SSW,203,0.0,10.7,90,0.44,,,0.44,WUHU216HW,2013-10-04 14:52:00,
2013-10-04 09:57:00,70.1,67.4,29.81,South,180,3.3,3.3,91,0.44,,,0.44,WUHU216HW,2013-10-04 14:57:00,
2013-10-04 10:02:00,70.1,67.4,29.81,SSE,158,2.9,4.0,91,0.49,,,0.48,WUHU216HW,2013-10-04 15:02:00,
2013-10-04 10:07:00,70.3,67.5,29.81,SSE,158,1.7,6.2,91,0.49,,,0.48,WUHU216HW,2013-10-04 15:07:00,
2013-10-04 10:12:00,70.8,68.4,29.81,South,180,7.6,7.6,92,0.49,,,0.48,WUHU216HW,2013-10-04 15:12:00,
2013-10-04 10:17:00,71.0,68.6,29.81,South,180,10.9,10.9,92,0.49,,,0.48,WUHU216HW,2013-10-04 15:17:00,
2013-10-04 10:22:00,71.2,68.7,29.81,South,180,3.1,10.9,92,0.44,,,0.48,WUHU216HW,2013-10-04 15:22:00,
2013-10-04 10:27:00,71.9,69.5,29.81,SSW,203,6.9,10.9,92,0.16,,,0.48,WUHU216HW,2013-10-04 15:27:00,
2013-10-04 10:32:00,72.3,69.8,29.81,SSE,158,3.3,7.3,92,0.06,,,0.48,WUHU216HW,2013-10-04 15:32:00,
2013-10-04 10:37:00,72.6,69.9,29.82,South,180,3.3,6.9,91,0.04,,,0.48,WUHU216HW,2013-10-04 15:37:00,
2013-10-04 10:42:00,72.6,69.9,29.83,NNW,338,3.1,3.8,91,0.04,,,0.48,WUHU216HW,2013-10-04 15:42:00,
2013-10-04 10:47:00,72.1,69.0,29.83,NNW,338,3.3,3.8,90,0.04,,,0.48,WUHU216HW,2013-10-04 15:47:00,
2013-10-04 10:52:00,71.4,68.0,29.83,NNW,338,2.0,4.6,89,0.04,,,0.48,WUHU216HW,2013-10-04 15:52:00,
2013-10-04 10:57:00,70.8,67.4,29.83,WSW,248,0.0,4.6,89,0.04,,,0.48,WUHU216HW,2013-10-04 15:57:00,
2013-10-04 11:02:00,70.8,67.4,29.83,West,270,0.0,1.5,89,0.00,,,0.48,WUHU216HW,2013-10-04 16:02:00,
2013-10-04 11:07:00,70.5,67.1,29.82,NNE,23,1.1,1.3,89,0.00,,,0.48,WUHU216HW,2013-10-04 16:07:00,
2013-10-04 11:12:00,70.1,66.7,29.83,North,0,2.9,2.9,89,0.00,,,0.48,WUHU216HW,2013-10-04 16:12:00,
2013-10-04 11:17:00,69.9,66.5,29.83,NE,45,1.3,2.9,89,0.00,,,0.48,WUHU216HW,2013-10-04 16:17:00,
2013-10-04 11:22:00,69.9,66.5,29.83,North,0,0.0,2.9,89,0.00,,,0.48,WUHU216HW,2013-10-04 16:22:00,
2013-10-04 11:27:00,69.6,66.2,29.83,NE,45,0.0,1.5,89,0.00,,,0.48,WUHU216HW,2013-10-04 16:27:00,
2013-10-04 11:32:00,69.8,66.7,29.83,ENE,68,0.0,1.5,90,0.00,,,0.48,WUHU216HW,2013-10-04 16:32:00,
2013-10-04 11:37:00,69.9,66.9,29.83,NNE,23,2.6,2.6,90,0.00,,,0.48,WUHU216HW,2013-10-04 16:37:00,
2013-10-04 11:42:00,69.9,66.9,29.83,North,0,1.5,2.9,90,0.00,,,0.48,WUHU216HW,2013-10-04 16:42:00,
2013-10-04 11:47:00,69.9,66.9,29.83,SE,135,0.0,2.9,90,0.00,,,0.48,WUHU216HW,2013-10-04 16:47:00,
2013-10-04 11:52:00,70.1,67.1,29.83,NE,45,0.0,1.5,90,0.00,,,0.48,WUHU216HW,2013-10-04 16:52:00,
2013-10-04 11:57:00,70.3,67.2,29.83,NE,45,0.0,0.0,90,0.00,,,0.48,WUHU216HW,2013-10-04 16:57:00,
2013-10-04 12:02:00,70.5,67.4,29.83,NE,45,0.0,0.0,90,0.00,,,0.48,WUHU216HW,2013-10-04 17:02:00,
2013-10-04 12:07:00,70.8,67.8,29.83,East,90,0.0,0.0,90,0.00,,,0.48,WUHU216HW,2013-10-04 17:07:00,
2013-10-04 12:12:00,71.2,68.1,29.83,SE,135,0.0,0.0,90,0.00,,,0.48,WUHU216HW,2013-10-04 17:12:00,
2013-10-04 12:17:00,71.4,68.3,29.83,SE,135,0.0,0.0,90,0.00,,,0.48,WUHU216HW,2013-10-04 17:17:00,
2013-10-04 12:22:00,71.6,68.1,29.83,SSW,203,0.0,0.0,89,0.00,,,0.48,WUHU216HW,2013-10-04 17:22:00,
2013-10-04 12:27:00,71.9,68.5,29.83,South,180,0.0,0.0,89,0.00,,,0.48,WUHU216HW,2013-10-04 17:27:00,
2013-10-04 12:32:00,71.9,68.5,29.83,NE,45,0.0,0.0,89,0.00,,,0.48,WUHU216HW,2013-10-04 17:32:00,
2013-10-04 12:37:00,72.1,68.7,29.83,NE,45,0.0,0.0,89,0.00,,,0.48,WUHU216HW,2013-10-04 17:37:00,
2013-10-04 13:02:00,74.4,71.0,29.81,SSE,158,0.0,0.0,89,0.00,,,0.48,WUHU216HW,2013-10-04 18:02:00,
2013-10-04 13:07:00,75.2,71.7,29.81,ESE,113,0.0,0.0,89,0.00,,,0.48,WUHU216HW,2013-10-04 18:07:00,
2013-10-04 13:12:00,76.1,72.3,29.81,SE,135,0.0,0.0,88,0.00,,,0.48,WUHU216HW,2013-10-04 18:12:00,
2013-10-04 13:17:00,76.8,72.6,29.81,SE,135,0.0,0.0,87,0.00,,,0.48,WUHU216HW,2013-10-04 18:17:00,
2013-10-04 13:22:00,77.3,72.8,29.80,South,180,0.0,0.0,86,0.00,,,0.48,WUHU216HW,2013-10-04 18:22:00,
2013-10-04 13:27:00,77.9,73.0,29.80,ENE,68,0.0,0.0,85,0.00,,,0.48,WUHU216HW,2013-10-04 18:27:00,
2013-10-04 13:32:00,78.0,72.8,29.80,ESE,113,0.0,0.0,84,0.00,,,0.48,WUHU216HW,2013-10-04 18:32:00,
2013-10-04 13:37:00,78.4,72.8,29.79,SSE,158,0.0,0.0,83,0.00,,,0.48,WUHU216HW,2013-10-04 18:37:00,
2013-10-04 13:42:00,78.6,73.0,29.79,ENE,68,0.0,0.0,83,0.00,,,0.48,WUHU216HW,2013-10-04 18:42:00,
2013-10-04 13:47:00,78.9,73.0,29.79,South,180,2.2,2.2,82,0.02,,,0.50,WUHU216HW,2013-10-04 18:47:00,
2013-10-04 13:52:00,79.3,73.3,29.78,SSE,158,0.0,2.2,82,0.02,,,0.50,WUHU216HW,2013-10-04 18:52:00,
2013-10-04 13:57:00,80.0,74.0,29.78,SSE,158,0.0,2.2,82,0.02,,,0.50,WUHU216HW,2013-10-04 18:57:00,
2013-10-04 14:02:00,80.7,74.1,29.78,East,90,0.0,0.0,80,0.02,,,0.50,WUHU216HW,2013-10-04 19:02:00,
2013-10-04 14:07:00,80.9,73.8,29.77,SSW,203,0.0,0.0,79,0.02,,,0.50,WUHU216HW,2013-10-04 19:07:00,
2013-10-04 14:12:00,81.3,74.2,29.78,ENE,68,0.0,0.0,79,0.02,,,0.50,WUHU216HW,2013-10-04 19:12:00,
2013-10-04 14:17:00,81.3,73.8,29.77,SE,135,0.0,0.0,78,0.02,,,0.50,WUHU216HW,2013-10-04 19:17:00,
2013-10-04 14:22:00,81.6,74.1,29.77,ENE,68,0.0,0.0,78,0.02,,,0.50,WUHU216HW,2013-10-04 19:22:00,
2013-10-04 14:27:00,83.3,75.3,29.76,SE,135,0.0,0.0,77,0.02,,,0.50,WUHU216HW,2013-10-04 19:27:00,
2013-10-04 14:32:00,84.0,75.5,29.77,South,180,2.0,2.0,76,0.02,,,0.50,WUHU216HW,2013-10-04 19:32:00,
2013-10-04 14:37:00,84.0,75.2,29.76,SSE,158,0.0,2.0,75,0.02,,,0.50,WUHU216HW,2013-10-04 19:37:00,
2013-10-04 14:42:00,83.8,74.2,29.76,SSE,158,3.5,4.6,73,0.00,,,0.50,WUHU216HW,2013-10-04 19:42:00,
2013-10-04 14:48:00,83.4,73.4,29.75,South,180,7.3,7.3,72,0.00,,,0.50,WUHU216HW,2013-10-04 19:48:00,
2013-10-04 14:53:00,83.1,72.7,29.76,SSE,158,3.1,7.3,71,0.00,,,0.50,WUHU216HW,2013-10-04 19:53:00,
2013-10-04 14:58:00,84.0,73.6,29.75,SSE,158,3.1,6.2,71,0.00,,,0.50,WUHU216HW,2013-10-04 19:58:00,
2013-10-04 15:03:00,84.5,73.7,29.75,South,180,4.0,6.2,70,0.00,,,0.50,WUHU216HW,2013-10-04 20:03:00,
2013-10-04 15:08:00,84.9,73.6,29.75,South,180,2.2,4.0,69,0.00,,,0.50,WUHU216HW,2013-10-04 20:08:00,
2013-10-04 15:13:00,85.6,73.9,29.75,SE,135,2.0,9.8,68,0.00,,,0.50,WUHU216HW,2013-10-04 20:13:00,
2013-10-04 15:18:00,85.2,73.0,29.75,SSE,158,10.5,10.5,67,0.00,,,0.50,WUHU216HW,2013-10-04 20:18:00,
2013-10-04 15:23:00,85.1,72.9,29.75,SSW,203,7.1,10.5,67,0.00,,,0.50,WUHU216HW,2013-10-04 20:23:00,
2013-10-04 15:28:00,85.2,73.0,29.75,South,180,5.3,10.5,67,0.00,,,0.50,WUHU216HW,2013-10-04 20:28:00,
2013-10-04 15:33:00,86.0,74.2,29.74,ENE,68,0.6,7.1,68,0.00,,,0.50,WUHU216HW,2013-10-04 20:33:00,
2013-10-04 15:38:00,86.1,73.9,29.75,South,180,5.8,5.8,67,0.00,,,0.50,WUHU216HW,2013-10-04 20:38:00,
2013-10-04 15:43:00,85.8,73.1,29.75,SSW,203,2.4,6.2,66,0.00,,,0.50,WUHU216HW,2013-10-04 20:43:00,
2013-10-04 15:48:00,85.2,73.2,29.75,West,270,0.0,6.2,67,0.00,,,0.50,WUHU216HW,2013-10-04 20:48:00,
2013-10-04 15:53:00,85.1,72.9,29.75,ESE,113,1.3,2.4,67,0.00,,,0.50,WUHU216HW,2013-10-04 20:53:00,
2013-10-04 15:58:00,84.9,72.7,29.75,SSE,158,0.0,1.3,67,0.00,,,0.50,WUHU216HW,2013-10-04 20:58:00,
2013-10-04 16:03:00,84.7,73.0,29.74,SSE,158,0.0,1.3,68,0.00,,,0.50,WUHU216HW,2013-10-04 21:03:00,
2013-10-04 16:08:00,84.9,73.2,29.74,ESE,113,0.0,0.0,68,0.00,,,0.50,WUHU216HW,2013-10-04 21:08:00,
2013-10-04 16:13:00,85.1,73.3,29.74,WSW,248,0.0,0.0,68,0.00,,,0.50,WUHU216HW,2013-10-04 21:13:00,
2013-10-04 16:14:00,85.1,73.3,29.74,SSE,158,0.0,0.0,68,0.00,,,0.50,WUHU216HW,2013-10-04 21:14:00,
2013-10-04 16:16:00,85.2,73.3,29.74,NE,45,0.0,0.0,68,0.00,,,0.50,WUHU216HW,2013-10-04 21:16:00,
2013-10-04 16:17:00,85.2,73.5,29.74,NE,45,0.0,0.0,68,0.00,,,0.50,WUHU216HW,2013-10-04 21:17:00,
2013-10-04 16:19:00,85.4,73.7,29.74,East,90,0.0,0.0,68,0.00,,,0.50,WUHU216HW,2013-10-04 21:19:00,
2013-10-04 16:20:00,85.4,73.7,29.74,South,180,0.0,0.0,68,0.00,,,0.50,WUHU216HW,2013-10-04 21:20:00,
2013-10-04 16:22:00,85.6,73.9,29.74,South,180,0.0,0.0,68,0.00,,,0.50,WUHU216HW,2013-10-04 21:22:00,
2013-10-04 16:23:00,85.8,74.0,29.74,ENE,68,2.0,2.0,68,0.00,,,0.50,WUHU216HW,2013-10-04 21:23:00,
2013-10-04 16:25:00,85.8,74.0,29.73,SSE,158,0.0,2.0,68,0.00,,,0.50,WUHU216HW,2013-10-04 21:25:00,
2013-10-04 16:26:00,85.8,74.0,29.74,SSE,158,0.0,2.0,68,0.00,,,0.50,WUHU216HW,2013-10-04 21:26:00,
2013-10-04 16:27:00,85.8,74.0,29.74,SSE,158,0.0,2.0,68,0.00,,,0.50,WUHU216HW,2013-10-04 21:27:00,
2013-10-04 16:29:00,85.8,74.0,29.73,NE,45,0.0,2.0,68,0.00,,,0.50,WUHU216HW,2013-10-04 21:29:00,
2013-10-04 16:30:00,85.8,74.0,29.73,NE,45,0.0,2.0,68,0.00,,,0.50,WUHU216HW,2013-10-04 21:30:00,
2013-10-04 16:32:00,85.8,74.0,29.73,ESE,113,0.0,2.0,68,0.00,,,0.50,WUHU216HW,2013-10-04 21:32:00,
2013-10-04 16:33:00,85.8,74.0,29.73,SSE,158,0.0,2.0,68,0.00,,,0.50,WUHU216HW,2013-10-04 21:33:00,
2013-10-04 16:35:00,85.8,74.0,29.73,SSE,158,0.0,0.0,68,0.00,,,0.50,WUHU216HW,2013-10-04 21:35:00,
2013-10-04 16:36:00,86.0,74.2,29.73,South,180,2.9,2.9,68,0.00,,,0.50,WUHU216HW,2013-10-04 21:36:00,
2013-10-04 16:38:00,86.0,74.2,29.74,West,270,0.0,2.9,68,0.00,,,0.50,WUHU216HW,2013-10-04 21:38:00,
2013-10-04 16:39:00,86.0,74.2,29.74,West,270,0.0,2.9,68,0.00,,,0.50,WUHU216HW,2013-10-04 21:39:00,
2013-10-04 16:41:00,86.1,74.4,29.74,South,180,0.0,2.9,68,0.00,,,0.50,WUHU216HW,2013-10-04 21:41:00,
2013-10-04 16:42:00,86.1,74.4,29.74,ESE,113,0.8,2.9,68,0.00,,,0.50,WUHU216HW,2013-10-04 21:42:00,
2013-10-04 16:44:00,86.1,74.4,29.74,SE,135,0.0,2.9,68,0.00,,,0.50,WUHU216HW,2013-10-04 21:44:00,
2013-10-04 16:45:00,86.1,74.4,29.73,SE,135,0.0,2.9,68,0.00,,,0.50,WUHU216HW,2013-10-04 21:45:00,
2013-10-04 16:47:00,86.5,74.7,29.73,SSE,158,0.0,0.8,68,0.00,,,0.50,WUHU216HW,2013-10-04 21:47:00,
2013-10-04 16:58:00,86.3,74.1,29.74,NNW,338,0.0,2.6,67,0.00,,,0.50,WUHU216HW,2013-10-04 21:58:00,
2013-10-04 17:03:00,86.3,74.1,29.73,South,180,4.6,4.6,67,0.00,,,0.50,WUHU216HW,2013-10-04 22:03:00,
2013-10-04 17:08:00,86.3,74.1,29.74,SE,135,0.0,4.6,67,0.00,,,0.50,WUHU216HW,2013-10-04 22:08:00,
2013-10-04 17:13:00,86.5,73.3,29.74,SSE,158,10.2,10.2,65,0.00,,,0.50,WUHU216HW,2013-10-04 22:13:00,
2013-10-04 17:18:00,85.8,72.2,29.74,SSE,158,6.7,10.2,64,0.00,,,0.50,WUHU216HW,2013-10-04 22:18:00,
2013-10-04 17:23:00,85.2,71.7,29.74,South,180,3.3,6.7,64,0.00,,,0.50,WUHU216HW,2013-10-04 22:23:00,
2013-10-04 17:28:00,85.1,71.5,29.74,ESE,113,0.0,6.7,64,0.00,,,0.50,WUHU216HW,2013-10-04 22:28:00,
2013-10-04 17:33:00,84.7,71.6,29.73,SSE,158,0.8,3.3,65,0.00,,,0.50,WUHU216HW,2013-10-04 22:33:00,
2013-10-04 17:38:00,84.3,71.3,29.73,South,180,0.0,3.1,65,0.00,,,0.50,WUHU216HW,2013-10-04 22:38:00,
2013-10-04 17:43:00,84.0,70.9,29.73,South,180,2.9,2.9,65,0.00,,,0.50,WUHU216HW,2013-10-04 22:43:00,
2013-10-04 17:48:00,83.3,70.2,29.73,SSE,158,3.8,3.8,65,0.00,,,0.50,WUHU216HW,2013-10-04 22:48:00,
2013-10-04 17:53:00,82.9,70.3,29.73,ESE,113,0.0,5.5,66,0.00,,,0.50,WUHU216HW,2013-10-04 22:53:00,
2013-10-04 17:58:00,82.5,69.9,29.73,SE,135,3.3,5.5,66,0.00,,,0.50,WUHU216HW,2013-10-04 22:58:00,
2013-10-04 18:03:00,82.2,70.0,29.73,South,180,5.5,5.5,67,0.00,,,0.50,WUHU216HW,2013-10-04 23:03:00,
2013-10-04 18:08:00,82.0,69.9,29.73,South,180,0.0,5.5,67,0.00,,,0.50,WUHU216HW,2013-10-04 23:08:00,
2013-10-04 18:13:00,81.6,70.0,29.73,South,180,1.5,2.6,68,0.00,,,0.50,WUHU216HW,2013-10-04 23:13:00,
2013-10-04 18:18:00,81.5,69.8,29.73,SSE,158,3.1,3.1,68,0.00,,,0.50,WUHU216HW,2013-10-04 23:18:00,
2013-10-04 18:23:00,81.1,69.5,29.73,South,180,2.6,3.1,68,0.00,,,0.50,WUHU216HW,2013-10-04 23:23:00,
2013-10-04 18:28:00,80.9,69.4,29.73,SSE,158,0.0,2.9,68,0.00,,,0.50,WUHU216HW,2013-10-04 23:28:00,
2013-10-04 18:33:00,80.4,68.9,29.73,South,180,3.1,3.1,68,0.00,,,0.50,WUHU216HW,2013-10-04 23:33:00,
2013-10-04 18:38:00,80.2,69.1,29.73,SSE,158,2.9,3.1,69,0.00,,,0.50,WUHU216HW,2013-10-04 23:38:00,
2013-10-04 18:43:00,79.8,69.2,29.73,South,180,0.0,2.9,70,0.00,,,0.50,WUHU216HW,2013-10-04 23:43:00,
2013-10-04 18:48:00,79.7,69.0,29.73,South,180,1.5,2.9,70,0.00,,,0.50,WUHU216HW,2013-10-04 23:48:00,
2013-10-04 18:53:00,79.3,68.7,29.73,SSE,158,1.7,1.7,70,0.00,,,0.50,WUHU216HW,2013-10-04 23:53:00,
2013-10-04 18:58:00,78.9,68.7,29.74,SE,135,1.5,1.7,71,0.00,,,0.50,WUHU216HW,2013-10-04 23:58:00,
2013-10-04 19:03:00,78.6,68.3,29.74,SSE,158,1.5,1.7,71,0.00,,,0.50,WUHU216HW,2013-10-05 00:03:00,
2013-10-04 19:08:00,78.6,68.3,29.74,South,180,2.0,3.5,71,0.00,,,0.50,WUHU216HW,2013-10-05 00:08:00,
2013-10-04 19:13:00,78.4,68.2,29.74,SE,135,0.0,3.5,71,0.00,,,0.50,WUHU216HW,2013-10-05 00:13:00,
2013-10-04 19:18:00,78.0,67.9,29.74,ESE,113,0.0,2.0,71,0.00,,,0.50,WUHU216HW,2013-10-05 00:18:00,
2013-10-04 19:23:00,77.7,67.9,29.73,East,90,0.0,1.7,72,0.00,,,0.50,WUHU216HW,2013-10-05 00:23:00,
2013-10-04 19:28:00,77.3,67.6,29.74,SSE,158,0.0,1.7,72,0.00,,,0.50,WUHU216HW,2013-10-05 00:28:00,
2013-10-04 19:33:00,77.0,67.6,29.74,SE,135,0.0,0.0,73,0.00,,,0.50,WUHU216HW,2013-10-05 00:33:00,
2013-10-04 19:38:00,76.8,67.5,29.74,SSE,158,0.0,0.0,73,0.00,,,0.50,WUHU216HW,2013-10-05 00:38:00,
2013-10-04 19:43:00,76.4,67.1,29.74,SSE,158,0.0,1.3,73,0.00,,,0.50,WUHU216HW,2013-10-05 00:43:00,
2013-10-04 19:48:00,76.2,66.9,29.75,SSW,203,0.0,1.3,73,0.00,,,0.50,WUHU216HW,2013-10-05 00:48:00,
2013-10-04 19:53:00,75.9,67.0,29.74,SSE,158,0.0,0.0,74,0.00,,,0.50,WUHU216HW,2013-10-05 00:53:00,
2013-10-04 19:58:00,75.9,66.8,29.74,ESE,113,0.0,0.6,74,0.00,,,0.50,WUHU216HW,2013-10-05 00:58:00,
2013-10-04 20:03:00,75.7,66.8,29.74,South,180,0.0,0.6,74,0.00,,,0.50,WUHU216HW,2013-10-05 01:03:00,
2013-10-04 20:08:00,75.5,67.0,29.74,East,90,0.0,2.2,75,0.00,,,0.50,WUHU216HW,2013-10-05 01:08:00,
2013-10-04 20:13:00,75.3,66.9,29.74,SE,135,2.0,2.9,75,0.00,,,0.50,WUHU216HW,2013-10-05 01:13:00,
2013-10-04 20:18:00,75.3,66.9,29.74,SE,135,1.7,2.9,75,0.00,,,0.50,WUHU216HW,2013-10-05 01:18:00,
2013-10-04 20:23:00,75.3,66.9,29.74,SSE,158,0.0,2.2,75,0.00,,,0.50,WUHU216HW,2013-10-05 01:23:00,
2013-10-04 20:28:00,75.3,66.9,29.74,South,180,4.2,4.2,75,0.00,,,0.50,WUHU216HW,2013-10-05 01:28:00,
2013-10-04 20:33:00,75.3,66.9,29.74,SSW,203,6.9,6.9,75,0.00,,,0.50,WUHU216HW,2013-10-05 01:33:00,
2013-10-04 20:38:00,75.3,66.9,29.74,SSE,158,2.4,6.9,75,0.00,,,0.50,WUHU216HW,2013-10-05 01:38:00,
2013-10-04 20:43:00,75.3,66.9,29.74,South,180,2.4,2.4,75,0.00,,,0.50,WUHU216HW,2013-10-05 01:43:00,
2013-10-04 20:48:00,75.3,66.9,29.73,SSW,203,4.4,4.4,75,0.00,,,0.50,WUHU216HW,2013-10-05 01:48:00,
2013-10-04 20:53:00,75.3,66.9,29.73,South,180,0.0,4.4,75,0.00,,,0.50,WUHU216HW,2013-10-05 01:53:00,
2013-10-04 20:58:00,75.3,66.9,29.73,ESE,113,4.0,4.4,75,0.00,,,0.50,WUHU216HW,2013-10-05 01:58:00,
2013-10-04 21:03:00,75.3,66.9,29.73,SSE,158,3.3,5.3,75,0.00,,,0.50,WUHU216HW,2013-10-05 02:03:00,
2013-10-04 21:09:00,75.3,66.9,29.73,SSE,158,9.8,9.8,75,0.00,,,0.50,WUHU216HW,2013-10-05 02:09:00,
2013-10-04 21:14:00,75.3,66.5,29.73,South,180,3.1,9.8,74,0.00,,,0.50,WUHU216HW,2013-10-05 02:14:00,
2013-10-04 21:19:00,75.5,66.6,29.74,South,180,6.9,8.2,74,0.00,,,0.50,WUHU216HW,2013-10-05 02:19:00,
2013-10-04 21:25:00,75.5,66.6,29.74,SSE,158,4.4,8.2,74,0.00,,,0.50,WUHU216HW,2013-10-05 02:25:00,
2013-10-04 21:30:00,75.7,66.8,29.75,SE,135,3.3,6.9,74,0.00,,,0.50,WUHU216HW,2013-10-05 02:30:00,
2013-10-04 21:35:00,75.7,66.8,29.74,South,180,10.9,10.9,74,0.00,,,0.50,WUHU216HW,2013-10-05 02:35:00,
2013-10-04 21:40:00,75.9,67.0,29.75,South,180,3.3,10.9,74,0.00,,,0.50,WUHU216HW,2013-10-05 02:40:00,
2013-10-04 21:45:00,76.1,66.8,29.75,SSW,203,6.2,10.5,73,0.00,,,0.50,WUHU216HW,2013-10-05 02:45:00,
2013-10-04 21:50:00,76.2,66.9,29.75,South,180,4.9,10.5,73,0.00,,,0.50,WUHU216HW,2013-10-05 02:50:00,
2013-10-04 21:55:00,76.6,67.3,29.75,SSW,203,18.7,18.7,73,0.00,,,0.50,WUHU216HW,2013-10-05 02:55:00,
2013-10-04 22:00:00,76.8,67.5,29.75,South,180,10.0,21.0,73,0.00,,,0.50,WUHU216HW,2013-10-05 03:00:00,
2013-10-04 22:05:00,77.3,67.4,29.75,South,180,8.7,21.0,72,0.00,,,0.50,WUHU216HW,2013-10-05 03:05:00,
2013-10-04 22:10:00,77.3,67.6,29.76,South,180,12.0,14.0,72,0.00,,,0.50,WUHU216HW,2013-10-05 03:10:00,
2013-10-04 22:15:00,77.5,67.4,29.76,SSW,203,5.8,12.0,71,0.00,,,0.50,WUHU216HW,2013-10-05 03:15:00,
2013-10-04 22:20:00,77.5,67.4,29.76,SSW,203,8.7,9.3,71,0.00,,,0.50,WUHU216HW,2013-10-05 03:20:00,
2013-10-04 22:25:00,77.5,67.4,29.76,South,180,11.6,11.6,71,0.00,,,0.50,WUHU216HW,2013-10-05 03:25:00,
2013-10-04 22:30:00,77.5,67.4,29.76,South,180,7.1,11.6,71,0.00,,,0.50,WUHU216HW,2013-10-05 03:30:00,
2013-10-04 22:35:00,77.3,67.2,29.76,South,180,8.2,11.6,71,0.00,,,0.50,WUHU216HW,2013-10-05 03:35:00,
2013-10-04 22:40:00,77.1,67.1,29.75,SW,225,5.1,19.6,71,0.00,,,0.50,WUHU216HW,2013-10-05 03:40:00,
2013-10-04 22:45:00,77.1,67.4,29.75,South,180,8.7,19.6,72,0.00,,,0.50,WUHU216HW,2013-10-05 03:45:00,
2013-10-04 22:50:00,77.0,67.3,29.75,South,180,8.7,14.5,72,0.00,,,0.50,WUHU216HW,2013-10-05 03:50:00,
2013-10-04 22:55:00,76.8,67.1,29.75,SE,135,7.1,14.5,72,0.00,,,0.50,WUHU216HW,2013-10-05 03:55:00,
2013-10-04 23:00:00,76.8,67.1,29.76,SSE,158,6.0,7.1,72,0.00,,,0.50,WUHU216HW,2013-10-05 04:00:00,
2013-10-04 23:01:00,76.8,67.1,29.76,SSE,158,6.0,7.1,72,0.00,,,0.50,WUHU216HW,2013-10-05 04:01:00,
2013-10-04 23:02:00,76.6,66.9,29.76,SSE,158,6.0,7.1,72,0.00,,,0.50,WUHU216HW,2013-10-05 04:02:00,
2013-10-04 23:07:00,76.6,66.9,29.76,SSW,203,11.4,11.4,72,0.00,,,0.50,WUHU216HW,2013-10-05 04:07:00,
2013-10-04 23:12:00,76.6,67.3,29.77,SSE,158,6.9,11.4,73,0.00,,,0.50,WUHU216HW,2013-10-05 04:12:00,
2013-10-04 23:17:00,76.6,67.3,29.77,South,180,10.5,10.5,73,0.00,,,0.50,WUHU216HW,2013-10-05 04:17:00,
2013-10-04 23:22:00,76.6,67.3,29.77,South,180,7.3,10.5,73,0.00,,,0.50,WUHU216HW,2013-10-05 04:22:00,
2013-10-04 23:27:00,76.6,67.3,29.77,SSE,158,10.2,11.8,73,0.00,,,0.50,WUHU216HW,2013-10-05 04:27:00,
2013-10-04 23:32:00,76.6,67.3,29.77,SSE,158,0.0,11.8,73,0.00,,,0.50,WUHU216HW,2013-10-05 04:32:00,
2013-10-04 23:37:00,76.6,67.3,29.77,South,180,6.9,11.1,73,0.00,,,0.50,WUHU216HW,2013-10-05 04:37:00,
2013-10-04 23:42:00,76.6,67.3,29.77,SSE,158,8.9,8.9,73,0.00,,,0.50,WUHU216HW,2013-10-05 04:42:00,
2013-10-04 23:47:00,76.6,67.3,29.77,South,180,7.6,8.9,73,0.00,,,0.50,WUHU216HW,2013-10-05 04:47:00,
2013-10-04 23:52:00,76.6,67.3,29.77,SSW,203,8.0,8.9,73,0.00,,,0.50,WUHU216HW,2013-10-05 04:52:00,
2013-10-04 23:57:00,76.2,66.9,29.77,SSW,203,11.6,11.6,73,0.00,,,0.50,WUHU216HW,2013-10-05 04:57:00,